Regional Weather Roundup
Issued by NWS Little Rock, AR

Home | Current Version | Previous Version | Text Only | Print | Product List | Glossary On
Versions: 1 2 3 4 5 6 7 8 9 10 11 12 13 14 15 16 17 18 19 20 21 22 23 24 25 26 27
000
ASUS44 KLZK 210505
RWRLZK

WEATHER ROUNDUP FOR ARKANSAS
NATIONAL WEATHER SERVICE LITTLE ROCK AR
1200 AM CDT MON APR 21 2014

NOTE: "FAIR" INDICATES FEW OR NO CLOUDS BELOW 12,000 FEET WITH NO
SIGNIFICANT WEATHER AND/OR OBSTRUCTIONS TO VISIBILITY.

ARZ001-003-010-029-210600-
NORTHWEST ARKANSAS

CITY           SKY/WX    TMP DP  RH WIND       PRES   REMARKS
FAYETTEVILLE   CLOUDY    62  57  83 S9        30.06F
FORT SMITH     CLOUDY    65  62  90 SW3       30.05F
HARRISON       MOCLDY    64  50  60 SE3       30.06F
BENTONVILLE    CLOUDY    66  50  55 S10       30.05S
ROGERS         CLOUDY    66  50  56 S10       30.05F
SILOAM SPGS    CLOUDY    63  54  72 S8        30.06S
HIGHFILL       CLOUDY    65  53  65 S8        30.04F
$$

ARZ004-005-016-210600-
NORTH CENTRAL ARKANSAS

CITY           SKY/WX    TMP DP  RH WIND       PRES   REMARKS
BATESVILLE     CLOUDY    66  48  52 CALM      30.07S
FLIPPIN        MOCLDY    64  46  52 CALM      30.06F
MTN HOME       MOCLDY    63  49  60 SE3       30.05F
$$

ARZ040-041-210600-
WEST CENTRAL ARKANSAS

CITY           SKY/WX    TMP DP  RH WIND       PRES   REMARKS
MENA           CLOUDY    64  64 100 CALM      30.09F
MOUNT IDA      CLOUDY    63  57  81 CALM      30.06S
$$

ARZ009-017-025-026-028-210600-
NORTHEAST ARKANSAS

CITY           SKY/WX    TMP DP  RH WIND       PRES   REMARKS
CORNING        FAIR      63  54  72 S6        30.08S
JONESBORO      MOCLDY    58  51  78 CALM      30.08S
NEWPORT        PTCLDY    62  54  75 SE8       30.09S
WALNUT RIDGE   MOCLDY    63  52  67 S7        30.08S
BLYTHEVILLE    PTCLDY    64  50  60 W3        30.09S
$$

ARZ022-023-033-042-044-210600-
CENTRAL ARKANSAS

CITY           SKY/WX    TMP DP  RH WIND       PRES   REMARKS
LITTLE ROCK    MOCLDY    67  53  61 S8        30.08S
N LITTLE ROCK  PTCLDY    67  56  65 S5        30.08S
JACKSONVILLE   MOCLDY    68  53  59 S8        30.07F
SEARCY         MOCLDY    62  56  81 CALM      30.08F
HOT SPRINGS    CLOUDY    63  56  78 CALM      30.08S
RUSSELLVILLE   CLOUDY    65  56  72 W3        30.06S
CLINTON        FAIR      61  57  88 CALM      30.07F
$$

ARZ036-210600-
EAST ARKANSAS

CITY           SKY/WX    TMP DP  RH WIND       PRES   REMARKS
WEST MEMPHIS   MOCLDY    61  55  81 S3        30.09S HAZE
$$

ARZ050-053-066-070-073-210600-
SOUTHWEST ARKANSAS

CITY           SKY/WX    TMP DP  RH WIND       PRES   REMARKS
ARKADELPHIA    FAIR      63  63 100 CALM      30.08S
CAMDEN         MOCLDY    63  55  77 MISG      30.07F
TEXARKANA      CLOUDY    64  59  83 CALM      30.07F
EL DORADO      MOCLDY    62  58  86 CALM      30.08F
DE QUEEN       LGT RAIN  64  62  93 CALM      30.07F FOG
$$

ARZ056-057-069-210600-
SOUTHEAST ARKANSAS

CITY           SKY/WX    TMP DP  RH WIND       PRES   REMARKS
PINE BLUFF     PTCLDY    64  55  72 CALM      30.08F
STUTTGART      PTCLDY    66  52  59 SE8       30.09S
MONTICELLO     PTCLDY    66  52  60 SE3       30.08F

$$





USA.gov is the U.S. government's official web portal to all federal, state and local government web resources and services.